Regional Weather Roundup
Issued by NWS

Home | Current Version | Previous Version | Graphics & Text | Print | Product List | Glossary On
Versions: 1 2 3 4 5 6 7 8 9 10 11 12 13 14 15 16 17 18 19 20 21 22 23 24 25 26 27 28 29 30 31 32 33 34 35 36 37 38 39 40 41 42 43 44 45 46 47 48 49 50
000
ASUS44 KMEG 201910
RWRTN
TENNESSEE HOURLY STATE WEATHER ROUNDUP
NATIONAL WEATHER SERVICE MEMPHIS TN
100 PM CST MON NOV 20 2017

TNZ002-004-019-021-049-052-054-088>092-202000-
WEST TENNESSEE

CITY           SKY/WX    TMP DP  RH WIND       PRES   REMARKS
MEMPHIS INTL   PTSUNNY   54  26  34 S6        30.15F
NWS MEMPHIS      N/A     55 N/A N/A MISG        N/A
JACKSON        SUNNY     54  24  31 VRB7      30.16F
DYERSBURG      SUNNY     52  27  38 S7        30.16F
SOMERVILLE     SUNNY     54  25  32 VRB7      30.14F
COVINGTON      SUNNY     52  27  37 SW7       30.15F
UNION CITY     SUNNY     50  27  40 S8        30.14F
BOLIVAR        SUNNY     54  21  28 S6        30.15F
PARIS          SUNNY     50  25  37 VRB6      30.14F
HUNTINGDON     SUNNY     52  27  37 VRB6      30.14F
LEXINGTON      SUNNY     52  21  30 CALM      30.15F
SELMER         SUNNY     52  23  32 CALM      30.15F
SAVANNAH       SUNNY     54  23  30 VRB7      30.15F
$$

TNZ008-025-027-028-033-062-065-066-202000-
NORTH MIDDLE TENNESSEE

CITY           SKY/WX    TMP DP  RH WIND       PRES   REMARKS
NASHVILLE      CLOUDY    52  23  32 VRB5      30.18F
PORTLAND       SUNNY     48  25  40 VRB5      30.16F
CLARKSVILLE    CLOUDY    50  25  37 S8        30.16F
SMYRNA         CLOUDY    51  23  33 VRB3      30.18F
COOKEVILLE     SUNNY     52  21  30 CALM      30.16F
GALLATIN       SUNNY     50  27  40 SE6       30.20F
CROSSVILLE     CLOUDY    52  23  32 VRB3      30.16F
$$

TNZ061-075-076-078-094-096-097-202000-
SOUTH MIDDLE TENNESSEE

CITY           SKY/WX    TMP DP  RH WIND       PRES   REMARKS
FAYETTEVILLE   SUNNY     54  25  32 CALM      30.16F
TULLAHOMA      SUNNY     54  19  26 VRB5      30.15F
WINCHESTER     SUNNY     57  25  28 CALM      30.16F
MCMINNVILLE    SUNNY     54  25  32 CALM      30.16F
COLUMBIA       SUNNY     54  23  30 CALM      30.14F
SHELBYVILLE    SUNNY     54  25  32 S6        30.16F
$$

TNZ017-018-042-046-047-202000-
NORTHEAST TENNESSEE

CITY           SKY/WX    TMP DP  RH WIND       PRES   REMARKS
TRI CITIES     SUNNY     49  22  34 CALM      30.21F
ELIZABETHTON   SUNNY     52  16  24 CALM      30.20F
$$

TNZ012-013-036-069-073-074-202000-
CENTRAL EAST TENNESSEE

CITY           SKY/WX    TMP DP  RH WIND       PRES   REMARKS
KNOXVILLE      PTSUNNY   50  33  52 NE5       30.19F
OAK RIDGE      SUNNY     50  28  42 E3        30.22F
DOWNTOWN KNOXV SUNNY     52  32  46 CALM      30.21F
GATLINBURG     SUNNY     50  30  46 N5        30.20F
MORRISTOWN     SUNNY     48  27  43 NE5       30.20F
JACKSBORO      SUNNY     50  27  40 CALM      30.23F
$$

TNZ083-085-099-202000-
SOUTHEAST TENNESSEE

CITY           SKY/WX    TMP DP  RH WIND       PRES   REMARKS
CHATTANOOGA    CLOUDY    52  28  39 CALM      30.20F
$$

SKY/WX REPORTED AS FAIR MEANS FEW OR NO CLOUDS BELOW
12 THOUSAND FEET.




USA.gov is the U.S. government's official web portal to all federal, state and local government web resources and services.